This demonstration page uses our WeatherBlox Daily Observations layout. Learn more.

38.89511, -77.03637

Hourly Observations for September 14, 2019

Temp ( °F °C ) Dew Point ( °F °C ) Humidity (%) Winds ( mph kmh ) Pressure ( in mb ) Visibility ( mi km ) Precip ( " mm )
12:52 am 00:52 Cloudy 69 20.6 59 15 70 70 SE 6 9 30.33 1027 10 16.09344 0 0
1:52 am 01:52 Partly Cloudy 68 20 59 15 73 73 ESE 7 11 30.33 1027 10 16.09344 0 0
2:52 am 02:52 Partly Cloudy 68 20 59 15 73 73 SE 7 11 30.3 1026 10 16.09344 0 0
4:52 am 04:52 Cloudy 67 19.4 60 15.6 79 79 S 5 7 30.3 1026 8 12.874752 0 0
5:52 am 05:52 Cloudy 69 20.6 61 16.1 76 76 ESE 10 17 30.27 1025 10 16.09344 0 0
6:52 am 06:52 Cloudy 69 20.6 61 16.1 76 76 SE 7 11 30.3 1026 10 16.09344 0 0
7:09 am 07:09 Cloudy 69 20.6 61 16.1 76 76 SE 8 13 30.3 1026 10 16.09344 0 0
7:52 am 07:52 Cloudy 70 21.1 62 16.7 76 76 ESE 8 13 30.3 1026 10 16.09344 0 0
8:52 am 08:52 Cloudy 71 21.7 63 17.2 76 76 SE 8 13 30.3 1026 10 16.09344 0 0
8:59 am 08:59 Cloudy 71 21.7 63 17.2 76 76 SE 9 15 30.3 1026 10 16.09344 0 0
9:52 am 09:52 Cloudy 73 22.8 64 17.8 74 74 S 6 9 30.3 1026 10 16.09344 0 0
10:52 am 10:52 Cloudy 74 23.3 65 18.3 74 74 SSW 7 11 30.3 1026 10 16.09344 0 0
11:52 am 11:52 Cloudy 77 25 66 18.9 69 69 SSE 10 17 30.27 1025 10 16.09344 0 0
12:17 pm 12:17 Cloudy 77 25 65 18.3 66 66 S 12 19 30.27 1025 10 16.09344 0 0
12:21 pm 12:21 Cloudy 77 25 66 18.9 69 69 S 10 17 30.27 1025 10 16.09344 0 0
12:24 pm 12:24 Cloudy 77 25 65 18.3 66 66 S 10 17 30.27 1025 10 16.09344 0 0
12:35 pm 12:35 Cloudy 78 25.6 66 18.9 67 67 SSE 9 15 30.27 1025 10 16.09344 0 0
12:40 pm 12:40 Cloudy 78 25.6 66 18.9 67 67 SSE 10 17 30.27 1025 10 16.09344 0 0
12:52 pm 12:52 Cloudy 78 25.6 66 18.9 67 67 S 10 17 30.24 1024 10 16.09344 0 0
1:24 pm 13:24 Cloudy 79 26.1 67 19.4 67 67 S 9 15 30.24 1024 10 16.09344 0 0
1:26 pm 13:26 Cloudy 79 26.1 67 19.4 67 67 S 9 15 30.24 1024 10 16.09344 0 0
1:41 pm 13:41 Cloudy 80 26.7 66 18.9 62 62 SSW 14 22 30.24 1024 10 16.09344 0 0
1:52 pm 13:52 Cloudy 80 26.7 65 18.3 60 60 S 12 19 30.21 1023 10 16.09344 0 0
2:52 pm 14:52 Cloudy 79 26.1 67 19.4 67 67 S 13 20 30.18 1022 10 16.09344 0 0
3:52 pm 15:52 Cloudy 80 26.7 68 20 67 67 S 12 19 30.18 1022 10 16.09344 0 0
4:52 pm 16:52 Cloudy 81 27.2 68 20 65 65 S 12 19 30.15 1021 10 16.09344 0 0
5:52 pm 17:52 Mostly Cloudy 81 27.2 67 19.4 62 62 SSW 9 15 30.15 1021 10 16.09344 0 0
6:52 pm 18:52 Cloudy 79 26.1 67 19.4 67 67 S 8 13 30.15 1021 10 16.09344 0 0
7:52 pm 19:52 Cloudy 79 26.1 68 20 69 69 S 3 6 30.18 1022 10 16.09344 0 0
8:52 pm 20:52 Cloudy 78 25.6 69 20.6 74 74 S 5 7 30.18 1022 10 16.09344 0 0
9:52 pm 21:52 Cloudy 78 25.6 69 20.6 74 74 S 8 13 30.18 1022 10 16.09344 0 0
10:52 pm 22:52 Mostly Cloudy 77 25 70 21.1 79 79 S 8 13 30.15 1021 10 16.09344 0 0
11:52 pm 23:52 Cloudy 76 24.4 69 20.6 79 79 SSW 7 11 30.15 1021 10 16.09344 0 0

Powered by AerisWeather